Москва (Север)

Россия / Московская область     55°55′01″N   37°34′58″E
В апреле 2022 года жителям России запретили посещать сайт meteo.paraplan.net по решению Генеральной прокуратуры. Аудитория сайта уменьшилась в 10 раз. Владельцы сайта не видят смысла в поддержке погодного сервера в таких условиях. Сайт будет закрыт в октябре.
темп.,
°C
ветер,
м/с
пор.,
м/с
влажн.,
%
обл.,
%
осадки,
мм/ч
давл.,
гПа
погр.,
м
3 октября, пн
пн300:00+10всв61586100 0.5 1000465
03:00+11в71596100 3.4 997565
06:00+13в71596100 4.1 995824
09:00+14вюв81694100 6.1 9931072
12:00+14юв91789100 1.5 9921473
15:00+12ю81374100 2.1 9961421
18:00+9ююв71477100 0.2 9991384
21:00+8ююв81980100 0.5 10011857
4 октября, вт
вт400:00+9юв8168296 0.4 10021399
03:00+10ююв81675100 0.5 10031517
06:00+10ююв91574100 0.1 10041414
09:00+9ююв91577100 0.1 10051303
12:00+10ююв81572100 0.1 10061740
15:00+8ю61284100 1.9 10081174
18:00+8ююв71381100 0.3 10081166
21:00+8ю41183100 0.6 10081234
5 октября, ср
ср500:00+7ю5987100 0.6 10091103
03:00+7ююз5889100 1.8 10091107
06:00+6ююз4788100 0.6 1010890
09:00+6юз4686100 0.7 1010918
12:00+6зюз3587100 0.8 1012838
15:00+5з478694 1.0 1013647
18:00+6з3784100 0.2 1014597
21:00+6з378650 0.6 1015654
6 октября, чт
чт600:00+5з389198 0.1 1016424
03:00+4з359325 0.1 1016146
06:00+3зюз259386 0.0 1017114
09:00+5ююз2493100 0.4 1016196
12:00+6ююв3794100 1.3 1015337
15:00+7ю2898100 1.4 1014322
18:00+9юз41097100 0.6 1014420
21:00+9юз4139698 0.6 1013498
7 октября, пт
пт700:00+11з51393100 0.1 1013601
03:00+9зсз5139023 0.1 1015627
06:00+9зсз61186100 0.0 1016810
09:00+9з51079100 0.1 10171141
12:00+10з6137883 0.1 10181221
15:00+12з713705 0.1 10181292
18:00+11з612741 0.0 1019803
21:00+9з513845 0.0 1021542